Location: Clarion
(42.7316°N, 93.7330°W)
Time: 21:27:00
(UTC+00:00)

MOZ.5/SAFIR/RUBIN 5/SL-8 - Pass Details

Date: 22 April 2026
Orbit: 665 x 693 km, 98.3° (Epoch: 12 May)

Event Time Altitude Azimuth Distance (km) Brightness Sun altitude
Exits shadow 08:39:09 74° 114° (ESE) 716 3.8 -25.7°
Maximum altitude 08:39:25 78° 75° (ENE) 706 3.8 -25.7°
Drops below altitude 10° 08:44:05 10° 350° (N) 2,130 6.8 -25.1°
Sets 08:46:19 0° 349° (NNW) 3,045 7.6 -24.8°
